• In Russia
  • List of Countries
  • For 7 days
  • Water Temperature
  • Weather Map
  • Weather Widgets
  • user-avatar
    Login

    Hourly Weather Kosow

    Today, 28 February, Friday

    Time Temperature Precipitation Wind Pressure Humidity
    00:00 +1°C° 0 mm 2 mps 733 mmHg 81%
    01:00 +1°C° 0 mm 2 mps 733 mmHg 80%
    02:00 +2°C° 0 mm 1 mps 733 mmHg 80%
    03:00 +2°C° 0 mm 1 mps 733 mmHg 80%
    04:00 +1°C° 0 mm 1 mps 733 mmHg 79%
    05:00 +2°C° 0 mm 1 mps 734 mmHg 79%
    06:00 +1°C° 0 mm 2 mps 735 mmHg 79%
    07:00 +1°C° 0 mm 2 mps 736 mmHg 78%
    08:00 0°C° 0 mm 3 mps 737 mmHg 81%
    09:00 +1°C° 0 mm 3 mps 738 mmHg 84%
    10:00 0°C° 0 mm 4 mps 738 mmHg 86%
    11:00 +1°C° 0.1 mm 4 mps 739 mmHg 77%
    12:00 +2°C° 0.1 mm 5 mps 739 mmHg 68%
    13:00 +3°C° 0.1 mm 5 mps 740 mmHg 59%
    14:00 +3°C° 0 mm 5 mps 740 mmHg 58%
    15:00 +3°C° 0 mm 5 mps 740 mmHg 58%
    16:00 +3°C° 0 mm 5 mps 741 mmHg 57%
    17:00 +2°C° 0 mm 5 mps 741 mmHg 64%
    18:00 +1°C° 0 mm 4 mps 742 mmHg 72%
    19:00 0°C° 0 mm 4 mps 742 mmHg 79%
    20:00 0°C° 0 mm 4 mps 742 mmHg 81%
    21:00 -1°C° 0 mm 4 mps 743 mmHg 83%
    22:00 -1°C° 0 mm 4 mps 743 mmHg 85%
    23:00 -1°C° 0 mm 4 mps 743 mmHg 87%

    Tomorrow, 29 February, Saturday

    Time Temperature Precipitation Wind Pressure Humidity
    00:00 -1°C° 0 mm 4 mps 743 mmHg 88%
    01:00 -1°C° 0 mm 4 mps 743 mmHg 90%
    02:00 -2°C° 0 mm 4 mps 743 mmHg 89%
    03:00 -1°C° 0 mm 3 mps 742 mmHg 89%
    04:00 -1°C° 0 mm 3 mps 742 mmHg 88%
    05:00 -1°C° 0 mm 3 mps 742 mmHg 84%
    06:00 -1°C° 0 mm 4 mps 741 mmHg 80%
    07:00 -1°C° 0 mm 5 mps 741 mmHg 76%
    08:00 -1°C° 0 mm 6 mps 740 mmHg 69%
    09:00 +1°C° 0 mm 6 mps 739 mmHg 62%
    10:00 +2°C° 0 mm 7 mps 739 mmHg 54%
    11:00 +3°C° 0 mm 7 mps 738 mmHg 53%
    12:00 +4°C° 0 mm 8 mps 738 mmHg 52%
    13:00 +4°C° 0 mm 8 mps 737 mmHg 50%
    14:00 +4°C° 0 mm 7 mps 737 mmHg 55%
    15:00 +4°C° 0 mm 7 mps 736 mmHg 60%
    16:00 +3°C° 0 mm 6 mps 735 mmHg 65%
    17:00 +3°C° 0 mm 6 mps 735 mmHg 64%
    18:00 +3°C° 0 mm 6 mps 735 mmHg 63%
    19:00 +3°C° 0 mm 6 mps 734 mmHg 63%
    20:00 +3°C° 0 mm 6 mps 734 mmHg 62%
    21:00 +3°C° 0 mm 6 mps 734 mmHg 62%
    22:00 +3°C° 0 mm 6 mps 734 mmHg 62%
    23:00 +3°C° 0 mm 6 mps 734 mmHg 63%

    Day after tomorrow, 1 March, Sunday

    Time Temperature Precipitation Wind Pressure Humidity
    00:00 +3°C° 0 mm 6 mps 734 mmHg 64%
    01:00 +3°C° 0 mm 6 mps 734 mmHg 65%
    02:00 +3°C° 0.5 mm 6 mps 734 mmHg 71%
    03:00 +3°C° 0.5 mm 6 mps 734 mmHg 77%
    04:00 +2°C° 0.5 mm 6 mps 734 mmHg 83%
    05:00 +3°C° 0.4 mm 6 mps 735 mmHg 84%
    06:00 +3°C° 0.4 mm 5 mps 735 mmHg 84%
    07:00 +3°C° 0.4 mm 5 mps 735 mmHg 85%
    08:00 +3°C° 0 mm 5 mps 735 mmHg 82%
    09:00 +5°C° 0 mm 5 mps 735 mmHg 79%
    10:00 +6°C° 0 mm 5 mps 735 mmHg 76%
    11:00 +7°C° 0 mm 5 mps 735 mmHg 72%
    12:00 +7°C° 0 mm 5 mps 735 mmHg 68%
    13:00 +8°C° 0 mm 5 mps 735 mmHg 64%
    14:00 +8°C° 0 mm 6 mps 735 mmHg 65%
    15:00 +7°C° 0 mm 6 mps 735 mmHg 66%
    16:00 +7°C° 0 mm 6 mps 735 mmHg 67%
    17:00 +5°C° 0 mm 6 mps 735 mmHg 71%
    18:00 +6°C° 0 mm 5 mps 735 mmHg 75%
    19:00 +5°C° 0 mm 5 mps 735 mmHg 79%
    20:00 +5°C° 0 mm 5 mps 735 mmHg 80%
    21:00 +5°C° 0 mm 5 mps 735 mmHg 82%
    22:00 +5°C° 0 mm 4 mps 735 mmHg 83%
    23:00 +4°C° 0 mm 4 mps 734 mmHg 86%

    2 March, Monday

    Time Temperature Precipitation Wind Pressure Humidity
    00:00 +4°C° 0 mm 3 mps 734 mmHg 89%
    01:00 +3°C° 0 mm 3 mps 734 mmHg 92%
    02:00 +4°C° 0 mm 2 mps 733 mmHg 93%
    03:00 +3°C° 0 mm 2 mps 733 mmHg 93%
    04:00 +3°C° 0 mm 2 mps 732 mmHg 94%
    05:00 +3°C° 0 mm 2 mps 732 mmHg 95%
    06:00 +2°C° 0 mm 3 mps 732 mmHg 95%
    07:00 +2°C° 0 mm 3 mps 732 mmHg 96%
    08:00 +3°C° 0 mm 3 mps 731 mmHg 91%
    09:00 +4°C° 0 mm 3 mps 731 mmHg 87%
    10:00 +5°C° 0 mm 3 mps 730 mmHg 82%
    11:00 +7°C° 0.3 mm 3 mps 730 mmHg 82%
    12:00 +7°C° 0.3 mm 2 mps 730 mmHg 82%
    13:00 +7°C° 0.3 mm 2 mps 729 mmHg 81%
    14:00 +7°C° 1 mm 3 mps 729 mmHg 84%
    15:00 +7°C° 1 mm 3 mps 729 mmHg 86%
    16:00 +5°C° 1 mm 3 mps 729 mmHg 88%
    17:00 +5°C° 0.1 mm 3 mps 729 mmHg 87%
    18:00 +5°C° 0.1 mm 3 mps 730 mmHg 85%
    19:00 +4°C° 0.1 mm 3 mps 730 mmHg 84%
    20:00 +4°C° 0 mm 3 mps 731 mmHg 85%
    21:00 +3°C° 0 mm 3 mps 731 mmHg 87%
    22:00 +3°C° 0 mm 3 mps 732 mmHg 89%
    23:00 +2°C° 0 mm 3 mps 732 mmHg 88%

    3 March, Tuesday

    Time Temperature Precipitation Wind Pressure Humidity
    00:00 +2°C° 0 mm 3 mps 733 mmHg 88%
    01:00 +2°C° 0 mm 3 mps 733 mmHg 88%
    02:00 +2°C° 0 mm 3 mps 733 mmHg 88%
    03:00 +3°C° 0 mm 2 mps 733 mmHg 88%
    04:00 +3°C° 0 mm 2 mps 734 mmHg 88%
    05:00 +3°C° 0 mm 2 mps 734 mmHg 88%
    06:00 +4°C° 0 mm 1 mps 734 mmHg 87%
    07:00 +4°C° 0 mm 1 mps 735 mmHg 86%
    08:00 +5°C° 0 mm 1 mps 735 mmHg 81%
    09:00 +6°C° 0 mm 1 mps 735 mmHg 76%
    10:00 +6°C° 0 mm 0 mps 736 mmHg 70%
    11:00 +8°C° 0 mm 1 mps 736 mmHg 67%
    12:00 +7°C° 0 mm 2 mps 736 mmHg 65%
    13:00 +8°C° 0 mm 3 mps 736 mmHg 62%
    14:00 +7°C° 0.3 mm 3 mps 735 mmHg 66%
    15:00 +7°C° 0.3 mm 3 mps 735 mmHg 70%
    16:00 +7°C° 0.3 mm 3 mps 735 mmHg 74%
    17:00 +5°C° 0.5 mm 4 mps 736 mmHg 77%
    18:00 +4°C° 0.5 mm 4 mps 736 mmHg 81%
    19:00 +3°C° 0.5 mm 5 mps 736 mmHg 85%
    20:00 +3°C° 0.3 mm 5 mps 737 mmHg 87%
    21:00 +2°C° 0.3 mm 5 mps 737 mmHg 89%
    22:00 +2°C° 0.3 mm 5 mps 737 mmHg 91%
    23:00 +2°C° 0.2 mm 5 mps 737 mmHg 91%

    4 March, Wednesday

    Time Temperature Precipitation Wind Pressure Humidity
    00:00 +2°C° 0.2 mm 5 mps 737 mmHg 91%
    01:00 +2°C° 0.2 mm 5 mps 737 mmHg 91%
    02:00 +3°C° 0 mm 4 mps 737 mmHg 91%
    03:00 +3°C° 0 mm 4 mps 737 mmHg 90%
    04:00 +3°C° 0 mm 4 mps 737 mmHg 90%
    05:00 +3°C° 0.1 mm 4 mps 737 mmHg 89%
    06:00 +3°C° 0.1 mm 4 mps 737 mmHg 88%
    07:00 +3°C° 0.1 mm 4 mps 738 mmHg 88%
    08:00 +2°C° 0.1 mm 5 mps 737 mmHg 89%
    09:00 +2°C° 0.1 mm 5 mps 737 mmHg 91%
    10:00 +2°C° 0.1 mm 5 mps 737 mmHg 92%
    11:00 +2°C° 0.1 mm 5 mps 737 mmHg 90%
    12:00 +2°C° 0.1 mm 5 mps 737 mmHg 88%
    13:00 +2°C° 0.1 mm 5 mps 736 mmHg 86%
    14:00 +2°C° 0.3 mm 5 mps 736 mmHg 88%
    15:00 +2°C° 0.3 mm 5 mps 736 mmHg 89%
    16:00 +2°C° 0.3 mm 5 mps 735 mmHg 90%
    17:00 +2°C° 0.7 mm 5 mps 735 mmHg 92%
    18:00 +2°C° 0.7 mm 5 mps 735 mmHg 93%
    19:00 +2°C° 0.7 mm 5 mps 735 mmHg 94%
    20:00 +2°C° 0.5 mm 5 mps 734 mmHg 94%
    21:00 +3°C° 0.5 mm 4 mps 734 mmHg 95%
    22:00 +3°C° 0.5 mm 4 mps 733 mmHg 95%
    23:00 +3°C° 0.3 mm 4 mps 733 mmHg 95%
    Show more